Starlink 3591

operational
NORAD ID: 51870 Int'l Des: 2022-022 Owner: SPXS Country: US Constellation: starlink
LEOCIRCULAR

Starlink 3591について

説明を読み込み中...

リアルタイム位置

3D地球を読み込み中...

次回通過

高度履歴

Altitude vs Time

uPlot chart will show altitude changes over time

軌道要素

1 51870U 22022U 25305.51715342 .00001278 00000-0 98359-4 0 9998
2 51870 53.2157 224.5092 0001493 99.8073 260.3088 15.08837819203814
Epoch: Nov 1, 2025 • Age: 21 hours

現在のステータス

高度 545.7 km
速度 7.59 km/s
衛星直下点 -19.45°S, 28.99°E
打ち上げ日 Mar 3, 2022
運用期間 3.6 years
タイプ internet

技術仕様

分類 Payload
質量 297.00 kg
乾燥質量 275.00 kg
総質量 297.00 kg
長さ 0.20 m
直径 2.80 m
スパン 9.00 m
形状 Box + pan
製造者 SPXS
バスタイプ Starlink
フェーズステータス In Orbit
所有者/国 SPXS/US

大規模コンステレーション

Loading constellations...